Weather History for Cove Island, ON

Change the Weather History Date:

Tuesday, January 8, 2013

  Actual Average Record
Temperature  
Mean Temperature 36 °F -  
Max Temperature 39 °F - - ()
Min Temperature 34 °F - - ()
Degree Days  
Heating Degree Days 28    
Moisture  
Dew Point 31 °F    
Average Humidity 79    
Maximum Humidity 86    
Minimum Humidity 67    
Precipitation  
Precipitation 0.00 in - - ()
Sea Level Pressure  
Sea Level Pressure 30.08 in    
Wind  
Wind Speed - ()    
Max Wind Speed -    
Max Gust Speed -    
T = Trace of Precipitation, MM = Missing Value Source: Averaged Metar Reports

Daily Weather History Graph

Daily Weather History Graph

Search for Another Location

Airport:

Trip Planner

Search our weather history database for the weather conditions in past years. The results will help you decide how hot, cold, wet, or windy it might be!

Date:

Astronomy

Jan. 08, 2013 Rise Set
Actual Time 8:05 AM EST 5:02 PM EST
Civil Twilight 7:32 AM EST 5:35 PM EST
Nautical Twilight 6:55 AM EST 6:12 PM EST
Astronomical Twilight 6:19 AM EST 6:48 PM EST
Moon 4:36 AM EST (1/8) 2:03 PM EST (1/8)
Length of Visible Light 10h 03m
Length of Day
8h 56m
Waning Crescent, 14% of the Moon is Illuminated
Jan 8
Waning Crescent
Jan 11
New
Jan 18
First Quarter
Jan 26
Full
Feb 3
Last Quarter

Hourly Weather History & Observations

Time (EST) Temp. Dew Point Humidity Pressure Visibility Wind Dir Wind Speed Gust Speed Precip Events Conditions
12:00 AM 36.3 °F 28.2 °F 72% 29.95 in - North - - N/A   Unknown
1:00 AM 36 °F 29 °F 67% 29.95 in - Calm Calm - -  
1:00 AM 36.3 °F 28.9 °F 75% 29.95 in - North - - N/A   Unknown
2:00 AM 36.1 °F 29.5 °F 77% 29.96 in - North - - N/A   Unknown
3:00 AM 36.1 °F 29.7 °F 77% 29.98 in - North - - N/A   Unknown
4:00 AM 36.0 °F 30.7 °F 81% 29.98 in - North - - N/A   Unknown
5:00 AM 36.0 °F 30.9 °F 82% 29.99 in - North - - N/A   Unknown
6:00 AM 36.1 °F 31.3 °F 83% 30.01 in - North - - N/A   Unknown
7:00 AM 37 °F 32 °F 77% 30.03 in - Calm Calm - -  
7:00 AM 36.7 °F 31.6 °F 82% 30.03 in - North - - N/A   Unknown
8:00 AM 37.2 °F 32.0 °F 81% 30.05 in - North - - N/A   Unknown
9:00 AM 37.2 °F 32.0 °F 81% 30.09 in - North - - N/A   Unknown
10:00 AM 37.9 °F 31.3 °F 77% 30.12 in - North - - N/A   Unknown
11:00 AM 37.8 °F 31.3 °F 77% 30.14 in - North - - N/A   Unknown
12:00 PM 38.7 °F 31.6 °F 76% 30.15 in - North - - N/A   Unknown
1:00 PM 39 °F 32 °F 67% 30.15 in - Calm Calm - -  
1:00 PM 39.0 °F 31.8 °F 75% 30.15 in - North - - N/A   Unknown
2:00 PM 38.5 °F 29.8 °F 71% 30.14 in - North - - N/A   Unknown
3:00 PM 38.1 °F 30.6 °F 74% 30.15 in - North - - N/A   Unknown
4:00 PM 37.0 °F 30.7 °F 78% 30.17 in - North - - N/A   Unknown
5:00 PM 35.1 °F 30.6 °F 84% 30.18 in - North - - N/A   Unknown
6:00 PM 35.2 °F 31.5 °F 86% 30.17 in - North - - N/A   Unknown
7:00 PM 37 °F 33 °F 79% 30.17 in - Calm Calm - -  
7:00 PM 36.7 °F 32.9 °F 86% 30.17 in - North - - N/A   Unknown
8:00 PM 36.0 °F 32.0 °F 86% 30.16 in - North - - N/A   Unknown
9:00 PM 35.2 °F 31.3 °F 85% 30.14 in - North - - N/A   Unknown
10:00 PM 34.9 °F 30.9 °F 85% 30.11 in - North - - N/A   Unknown
11:00 PM 35.8 °F 32.0 °F 86% 30.10 in - North - - N/A   Unknown